Preview of NWS' New Version of Forecast
This preview is not operational and should not be used for support decisions.

Regional Weather Roundup (RWR)

Issued by National Weather Service (NWS)

                            
000
ASUS44 KMEG 220710
RWRTN 
TENNESSEE HOURLY STATE WEATHER ROUNDUP
NATIONAL WEATHER SERVICE MEMPHIS TN
200 AM CDT MON APR 22 2019

TNZ002-004-019-021-049-052-054-088>092-220800-
WEST TENNESSEE
  
CITY           SKY/WX    TMP DP  RH WIND       PRES   REMARKS
MEMPHIS INTL   FAIR      59  47  64 S5        30.10S                  
NWS MEMPHIS      N/A     56 N/A N/A MISG        N/A                   
JACKSON        FAIR      49  47  93 CALM      30.12F                  
DYERSBURG      FAIR      57  53  86 S3        30.11F                  
SOMERVILLE     CLEAR     52  50  93 CALM      30.10S                  
COVINGTON      CLEAR     54  52  94 CALM      30.10F                  
UNION CITY     CLEAR     54  52  94 CALM      30.09F                  
BOLIVAR        CLEAR     48  48 100 CALM      30.11F                  
PARIS          CLEAR     52  46  82 CALM      30.11F                  
HUNTINGDON     CLEAR     52  48  87 CALM      30.11F                  
LEXINGTON        N/A     48  48 100 CALM      30.12F                  
SELMER         CLEAR     50  46  87 CALM      30.11F                  
SAVANNAH       CLEAR     50  48  93 CALM      30.12F                  
$$

TNZ008-025-027-028-033-062-065-066-220800-
NORTH MIDDLE TENNESSEE
  
CITY           SKY/WX    TMP DP  RH WIND       PRES   REMARKS
NASHVILLE      FAIR      50  42  74 CALM      30.15F                  
DICKSON        SUNNY     52  39  62 CALM      30.13F                  
PORTLAND       CLEAR     50  43  76 S3        30.15S                  
CLARKSVILLE    FAIR      51  39  63 SE5       30.14S                  
LEBANON        SUNNY     45  43  93 CALM      30.14F                  
SMYRNA         FAIR      46  45  96 CALM      30.17F                  
MURFREESBORO   SUNNY     46  43  87 CALM      30.14F                  
COOKEVILLE     CLEAR     41  39  93 CALM      30.17S                  
LIVINGSTON     SUNNY     52  32  46 CALM      30.16F                  
GALLATIN       SUNNY     45  43  93 CALM      30.19S                  
CROSSVILLE     FAIR      44  36  73 CALM      30.19F                  
ROCKWOOD       SUNNY     48  36  61 CALM      30.18S                  
$$

TNZ061-075-076-078-094-096-097-220800-
SOUTH MIDDLE TENNESSEE
  
CITY           SKY/WX    TMP DP  RH WIND       PRES   REMARKS
LAWRENCEBURG   SUNNY     48  45  87 CALM      30.15S                  
LEWISBURG      SUNNY     43  41  93 CALM      30.15F                  
FAYETTEVILLE   CLEAR     50  43  76 CALM      30.16S                  
TULLAHOMA      CLEAR     43  41  93 CALM      30.16S                  
WINCHESTER     CLEAR     46  43  87 CALM      30.16F                  
MCMINNVILLE    CLEAR     43  41  93 CALM      30.17F                  
COLUMBIA       CLEAR     46  46 100 CALM      30.14S                  
SHELBYVILLE    CLEAR     48  41  76 E5        30.16S                  
$$

TNZ017-018-042-046-047-220800-
NORTHEAST TENNESSEE
  
CITY           SKY/WX    TMP DP  RH WIND       PRES   REMARKS
TRI CITIES     MOCLDY    42  40  92 CALM      30.19F FOG              
ELIZABETHTON   FAIR      41  41 100 CALM      30.19F                  
GREENEVILLE    SUNNY     45  41  87 CALM      30.18S                  
$$

TNZ012-013-036-069-073-074-220800-
CENTRAL EAST TENNESSEE
  
CITY           SKY/WX    TMP DP  RH WIND       PRES   REMARKS
KNOXVILLE      FAIR      50  44  80 NE3       30.16F                  
OAK RIDGE      FAIR      47  43  86 CALM      30.19F                  
DOWNTOWN KNOXV FOG       46  46 100 CALM      30.18F VSB 1/2          
GATLINBURG     CLEAR     43  43 100 CALM      30.18S                  
MORRISTOWN     CLEAR     45  45 100 CALM      30.17F                  
JACKSBORO      CLEAR     43  41  93 CALM      30.21S                  
$$

TNZ083-085-099-220800-
SOUTHEAST TENNESSEE
  
CITY           SKY/WX    TMP DP  RH WIND       PRES   REMARKS
CHATTANOOGA    FAIR      49  43  80 CALM      30.18S                  
DAYTON         SUNNY     45  45 100 CALM      30.17S                  
$$

SKY/WX REPORTED AS FAIR MEANS FEW OR NO CLOUDS BELOW
12 THOUSAND FEET.